Weather History for Mammoth, CA

Change the Weather History Date:

Thursday, December 19, 2013

  Actual Average Record
Temperature  
Mean Temperature 26 °F -  
Max Temperature 37 °F 38 °F 59 °F (2000)
Min Temperature 15 °F 22 °F -2 °F (2012)
Degree Days  
Heating Degree Days 39    
Moisture  
Dew Point 20 °F    
Average Humidity 76    
Maximum Humidity 93    
Minimum Humidity 56    
Precipitation  
Precipitation 0.00 in - - ()
Sea Level Pressure  
Sea Level Pressure 29.76 in    
Wind  
Wind Speed 9 mph (WNW)    
Max Wind Speed 17 mph    
Max Gust Speed 24 mph    
Visibility 10 miles    
Events Snow    
Averages and records for this station are not official NWS values.
T = Trace of Precipitation, MM = Missing Value Source: NWS Daily Summary

Daily Weather History Graph

Daily Weather History Graph

Search for Another Location

Airport:

Trip Planner

Search our weather history database for the weather conditions in past years. The results will help you decide how hot, cold, wet, or windy it might be!

Date:

Astronomy

Dec. 19, 2013 Rise Set
Actual Time 7:05 AM PST 4:39 PM PST
Civil Twilight 6:36 AM PST 5:08 PM PST
Nautical Twilight 6:03 AM PST 5:41 PM PST
Astronomical Twilight 5:31 AM PST 6:13 PM PST
Moon 7:07 PM PST 8:29 AM PST
Length of Visible Light 10h 32m
Length of Day
9h 33m
Waning Gibbous, 95% of the Moon is Illuminated
Dec 19
Waning Gibbous
Dec 25
Last Quarter
Jan 1
New
Jan 7
First Quarter
Jan 15
Full

Hourly Weather History & Observations

Time (PST) Temp. Windchill Dew Point Humidity Pressure Visibility Wind Dir Wind Speed Gust Speed Precip Events Conditions
12:15 AM 32.0 °F 27.5 °F 26.6 °F 80% 29.70 in 10.0 mi WNW 4.6 mph - N/A   Mostly Cloudy
12:35 AM 35.6 °F 26.2 °F 23.0 °F 60% 29.68 in 10.0 mi WSW 15.0 mph 18.4 mph N/A   Mostly Cloudy
12:55 AM 37.4 °F 30.8 °F 23.0 °F 56% 29.67 in 10.0 mi SSW 9.2 mph - N/A   Mostly Cloudy
1:15 AM 37.4 °F 29.3 °F 23.0 °F 56% 29.66 in 10.0 mi West 12.7 mph 17.3 mph N/A   Overcast
1:35 AM 33.8 °F 25.8 °F 30.2 °F 87% 29.68 in 3.0 mi WNW 10.4 mph 17.3 mph N/A Snow Light Snow
1:55 AM 32.0 °F 27.5 °F 30.2 °F 93% 29.67 in 7.0 mi West 4.6 mph - N/A Snow Light Snow
2:15 AM 30.2 °F 23.4 °F 28.4 °F 93% 29.66 in 10.0 mi NNE 6.9 mph - N/A   Overcast
2:35 AM 30.2 °F 22.6 °F 26.6 °F 86% 29.66 in 10.0 mi NNW 8.1 mph - N/A   Mostly Cloudy
2:55 AM 32.0 °F 28.7 °F 23.0 °F 69% 29.65 in 10.0 mi West 3.5 mph - N/A   Overcast
3:15 AM 32.0 °F 26.4 °F 23.0 °F 69% 29.63 in 10.0 mi SE 5.8 mph - N/A   Overcast
3:35 AM 30.2 °F 26.7 °F 24.8 °F 80% 29.63 in 10.0 mi SW 3.5 mph - N/A   Overcast
3:55 AM 30.2 °F 25.4 °F 24.8 °F 80% 29.63 in 10.0 mi SE 4.6 mph - N/A   Overcast
4:15 AM 28.4 °F 21.2 °F 24.8 °F 86% 29.62 in 10.0 mi SSW 6.9 mph - N/A   Scattered Clouds
4:35 AM 28.4 °F 24.6 °F 23.0 °F 80% 29.62 in 10.0 mi NNE 3.5 mph - N/A   Clear
4:55 AM 26.6 °F 22.6 °F 21.2 °F 80% 29.61 in 10.0 mi North 3.5 mph - N/A   Clear
5:15 AM 30.2 °F 21.9 °F 23.0 °F 75% 29.60 in 10.0 mi WNW 9.2 mph - N/A   Mostly Cloudy
5:35 AM 32.0 °F 26.4 °F 21.2 °F 64% 29.61 in 10.0 mi East 5.8 mph - N/A   Scattered Clouds
5:55 AM 26.6 °F 21.2 °F 23.0 °F 86% 29.62 in 10.0 mi SSE 4.6 mph - N/A   Mostly Cloudy
6:15 AM 26.6 °F 21.2 °F 23.0 °F 86% 29.62 in 10.0 mi SSW 4.6 mph - N/A   Overcast
6:35 AM 26.6 °F - 23.0 °F 86% 29.62 in 10.0 mi Calm Calm - N/A   Overcast
6:55 AM 26.6 °F 20.0 °F 23.0 °F 86% 29.62 in 10.0 mi WNW 5.8 mph - N/A   Overcast
7:15 AM 26.6 °F 19.1 °F 23.0 °F 86% 29.63 in 10.0 mi West 6.9 mph - N/A   Scattered Clouds
7:35 AM 28.4 °F 22.2 °F 23.0 °F 80% 29.63 in 10.0 mi WNW 5.8 mph - N/A   Clear
7:55 AM 28.4 °F 22.2 °F 24.8 °F 86% 29.65 in 10.0 mi WNW 5.8 mph - N/A   Mostly Cloudy
8:15 AM 30.2 °F 25.4 °F 24.8 °F 80% 29.67 in 10.0 mi West 4.6 mph - N/A   Overcast
8:35 AM 30.2 °F 22.6 °F 24.8 °F 80% 29.68 in 10.0 mi West 8.1 mph - N/A   Overcast
8:55 AM 30.2 °F 21.9 °F 24.8 °F 80% 29.70 in 10.0 mi West 9.2 mph - N/A   Overcast
9:15 AM 30.2 °F 25.4 °F 24.8 °F 80% 29.71 in 10.0 mi North 4.6 mph - N/A   Overcast
9:35 AM 30.2 °F 21.3 °F 23.0 °F 75% 29.73 in 7.0 mi NNW 10.4 mph 18.4 mph N/A Snow Light Snow
9:55 AM 30.2 °F 23.4 °F 23.0 °F 75% 29.73 in 5.0 mi WNW 6.9 mph - N/A Snow Light Snow
10:15 AM 30.2 °F 19.8 °F 23.0 °F 75% 29.75 in 10.0 mi WNW 13.8 mph - N/A   Overcast
10:35 AM 30.2 °F 21.3 °F 23.0 °F 75% 29.75 in 10.0 mi WNW 10.4 mph 19.6 mph N/A Snow Light Snow
10:55 AM 30.2 °F 22.6 °F 23.0 °F 75% 29.76 in 10.0 mi WNW 8.1 mph 11.5 mph N/A   Overcast
11:15 AM 30.2 °F 21.9 °F 21.2 °F 69% 29.77 in 10.0 mi NW 9.2 mph - N/A   Overcast
11:35 AM 30.2 °F 19.8 °F 21.2 °F 69% 29.77 in 10.0 mi NW 13.8 mph 20.7 mph N/A   Overcast
11:55 AM 30.2 °F 19.8 °F 21.2 °F 69% 29.77 in 10.0 mi NNW 13.8 mph 19.6 mph N/A   Overcast
12:15 PM 30.2 °F 18.9 °F 19.4 °F 64% 29.78 in 10.0 mi NNW 16.1 mph 20.7 mph N/A   Overcast
12:35 PM 30.2 °F 20.2 °F 19.4 °F 64% 29.78 in 10.0 mi NNW 12.7 mph 18.4 mph N/A   Overcast
12:55 PM 28.4 °F 18.5 °F 19.4 °F 69% 29.78 in 10.0 mi NW 11.5 mph 20.7 mph N/A   Overcast
1:15 PM 28.4 °F 18.5 °F 19.4 °F 69% 29.76 in 10.0 mi WNW 11.5 mph 23.0 mph N/A   Overcast
1:35 PM 30.2 °F 19.3 °F 19.4 °F 64% 29.77 in 10.0 mi WNW 15.0 mph 23.0 mph N/A   Overcast
1:55 PM 28.4 °F 17.5 °F 17.6 °F 64% 29.78 in 10.0 mi NW 13.8 mph 20.7 mph N/A   Overcast
2:15 PM 28.4 °F 18.0 °F 17.6 °F 64% 29.77 in 10.0 mi WNW 12.7 mph - N/A   Overcast
2:35 PM 28.4 °F 18.5 °F 17.6 °F 64% 29.78 in 10.0 mi WNW 11.5 mph 17.3 mph N/A   Overcast
2:55 PM 28.4 °F 18.5 °F 17.6 °F 64% 29.79 in 10.0 mi West 11.5 mph 24.2 mph N/A   Overcast
3:15 PM 28.4 °F 18.5 °F 17.6 °F 64% 29.79 in 10.0 mi WNW 11.5 mph 19.6 mph N/A   Overcast
3:35 PM 28.4 °F 18.0 °F 15.8 °F 59% 29.79 in 10.0 mi WNW 12.7 mph - N/A   Overcast
3:55 PM 26.6 °F 16.8 °F 15.8 °F 64% 29.78 in 10.0 mi West 10.4 mph - N/A   Overcast
4:15 PM 26.6 °F 16.2 °F 17.6 °F 69% 29.79 in 10.0 mi WNW 11.5 mph - N/A   Overcast
4:35 PM 26.6 °F 16.8 °F 17.6 °F 69% 29.82 in 10.0 mi West 10.4 mph - N/A   Overcast
4:55 PM 24.8 °F 14.0 °F 17.6 °F 74% 29.83 in 10.0 mi West 11.5 mph - N/A   Scattered Clouds
5:15 PM 24.8 °F 13.4 °F 17.6 °F 74% 29.84 in 10.0 mi West 12.7 mph - N/A   Clear
5:35 PM 23.0 °F 9.2 °F 17.6 °F 80% 29.84 in 10.0 mi West 17.3 mph - N/A   Scattered Clouds
5:55 PM 23.0 °F 11.1 °F 17.6 °F 80% 29.84 in 10.0 mi West 12.7 mph 18.4 mph N/A   Scattered Clouds
6:15 PM 23.0 °F 12.4 °F 15.8 °F 74% 29.85 in 10.0 mi West 10.4 mph - N/A   Scattered Clouds
6:35 PM 21.2 °F 10.1 °F 15.8 °F 80% 29.85 in 10.0 mi WNW 10.4 mph - N/A   Clear
6:55 PM 21.2 °F 7.3 °F 15.8 °F 80% 29.87 in 10.0 mi West 16.1 mph - N/A   Clear
7:15 PM 23.0 °F 11.1 °F 15.8 °F 74% 29.87 in 10.0 mi West 12.7 mph 20.7 mph N/A   Scattered Clouds
7:35 PM 21.2 °F 10.1 °F 15.8 °F 80% 29.87 in 10.0 mi NW 10.4 mph 21.9 mph N/A   Scattered Clouds
7:55 PM 21.2 °F 8.3 °F 15.8 °F 80% 29.87 in 10.0 mi West 13.8 mph - N/A   Mostly Cloudy
8:15 PM 21.2 °F 8.9 °F 14.0 °F 74% 29.86 in 10.0 mi WNW 12.7 mph - N/A   Mostly Cloudy
8:35 PM 21.2 °F 8.3 °F 14.0 °F 74% 29.89 in 10.0 mi WNW 13.8 mph 17.3 mph N/A   Mostly Cloudy
8:55 PM 21.2 °F 10.1 °F 14.0 °F 74% 29.89 in 10.0 mi West 10.4 mph - N/A   Overcast
9:15 PM 21.2 °F 8.9 °F 14.0 °F 74% 29.90 in 10.0 mi WNW 12.7 mph 17.3 mph N/A   Overcast
9:35 PM 19.4 °F 7.2 °F 14.0 °F 80% 29.91 in 10.0 mi WNW 11.5 mph - N/A   Mostly Cloudy
9:55 PM 19.4 °F 9.5 °F 14.0 °F 80% 29.91 in 10.0 mi WNW 8.1 mph - N/A   Scattered Clouds
10:15 PM 17.6 °F 6.4 °F 14.0 °F 86% 29.91 in 10.0 mi West 9.2 mph - N/A   Clear
10:35 PM 17.6 °F 8.2 °F 14.0 °F 86% 29.91 in 10.0 mi West 6.9 mph - N/A   Clear
10:55 PM 17.6 °F 7.3 °F 14.0 °F 86% 29.90 in 10.0 mi West 8.1 mph - N/A   Clear
11:15 PM 17.6 °F 6.4 °F 14.0 °F 86% 29.91 in 10.0 mi West 9.2 mph - N/A   Clear
11:35 PM 15.8 °F 4.2 °F 14.0 °F 93% 29.91 in 10.0 mi West 9.2 mph - N/A   Clear
11:55 PM 15.8 °F 3.4 °F 14.0 °F 93% 29.91 in 10.0 mi West 10.4 mph - N/A   Clear